Gamaliel, AR

8:19 AM CDT on September 28, 2016 (GMT -0500)
Baxter County Regional

Weather History for KBPK - May, 2013

Change the Weather History Date:

Saturday, May 25, 2013

  Actual Average (KHRO) Record (KHRO)
Temperature  
Mean Temperature 65 °F 68 °F  
Max Temperature 80 °F 79 °F 94 °F (1926)
Min Temperature 51 °F 58 °F 35 °F (1925)
Degree Days  
Heating Degree Days 0 1  
Month to date heating degree days 71  
Since 1 July heating degree days 3992  
Cooling Degree Days 0 4  
Month to date cooling degree days 73  
Year to date cooling degree days 110  
Growing Degree Days 15 (Base 50)    
Moisture  
Dew Point 53 °F    
Average Humidity 61    
Maximum Humidity 86    
Minimum Humidity 48    
Precipitation  
Precipitation 0.00 in 0.13 in 2.15 in (1917)
Month to date precipitation 3.86  
Year to date precipitation 17.17  
Snow  
Snow 0.00 in 0.00 in - ()
Month to date snowfall 0.0  
Since 1 July snowfall 11.5  
Snow Depth -    
Sea Level Pressure  
Sea Level Pressure 30.19 in    
Wind  
Wind Speed 5 mph (SSE)    
Max Wind Speed 9 mph    
Max Gust Speed -    
Visibility 10 miles    
Events      
T = Trace of Precipitation, MM = Missing Value Source: NWS Daily Summary

Daily Weather History Graph

Daily Weather History Graph

Search for Another Location

Airport or City:

Trip Planner

Search our weather history database for the weather conditions in past years. The results will help you decide how hot, cold, wet, or windy it might be!

Date:

Astronomy

May. 25, 2013 Rise Set
Actual Time 5:56 AM CDT 8:17 PM CDT
Civil Twilight 5:26 AM CDT 8:47 PM CDT
Nautical Twilight 4:50 AM CDT 9:23 PM CDT
Astronomical Twilight 4:11 AM CDT 10:03 PM CDT
Moon 9:06 PM CDT (5/25) 6:23 AM CDT (5/25)
Length of Visible Light 15h 20m
Length of Day
14h 21m
Full, 100% of the Moon is Illuminated
May 25
Full
May 31
Last Quarter
Jun 8
New
Jun 16
First Quarter
Jun 23
Full

Hourly Weather History & Observations

Time (CDT) Temp. Dew Point Humidity Pressure Visibility Wind Dir Wind Speed Gust Speed Precip Events Conditions
12:53 AM 55.9 °F 44.1 °F 64% 30.25 in 10.0 mi East 4.6 mph - N/A   Clear
1:53 AM 55.0 °F 44.1 °F 67% 30.24 in 10.0 mi East 3.5 mph - N/A   Clear
2:53 AM 55.0 °F 45.0 °F 69% 30.23 in 10.0 mi ESE 4.6 mph - N/A   Clear
3:53 AM 54.0 °F 44.1 °F 69% 30.22 in 10.0 mi SE 4.6 mph - N/A   Clear
4:53 AM 54.0 °F 45.0 °F 72% 30.23 in 10.0 mi ESE 4.6 mph - N/A   Clear
5:53 AM 51.1 °F 46.9 °F 86% 30.25 in 10.0 mi Calm Calm - N/A   Clear
6:53 AM 55.0 °F 46.9 °F 74% 30.25 in 10.0 mi ESE 4.6 mph - N/A   Clear
7:53 AM 59.0 °F 48.0 °F 67% 30.27 in 10.0 mi SSE 4.6 mph - N/A   Clear
8:53 AM 63.0 °F 48.9 °F 60% 30.27 in 10.0 mi South 8.1 mph - N/A   Scattered Clouds
9:53 AM 66.9 °F 51.1 °F 57% 30.25 in 10.0 mi SSE 8.1 mph - N/A   Overcast
10:53 AM 69.1 °F 51.1 °F 53% 30.24 in 10.0 mi SSE 9.2 mph - N/A   Mostly Cloudy
11:53 AM 72.0 °F 53.1 °F 51% 30.22 in 10.0 mi South 6.9 mph - N/A   Partly Cloudy
12:53 PM 75.0 °F 54.0 °F 48% 30.21 in 10.0 mi South 5.8 mph - N/A   Clear
1:53 PM 77.0 °F 55.9 °F 48% 30.20 in 10.0 mi SSE 8.1 mph - N/A   Clear
2:53 PM 78.1 °F 57.0 °F 48% 30.19 in 10.0 mi South 6.9 mph - N/A   Clear
3:53 PM 79.0 °F 57.9 °F 48% 30.17 in 9.0 mi South 9.2 mph - N/A   Clear
4:53 PM 79.0 °F 59.0 °F 50% 30.14 in 9.0 mi South 5.8 mph - N/A   Clear
5:53 PM 78.1 °F 59.0 °F 52% 30.13 in 9.0 mi SSE 6.9 mph - N/A   Clear
6:53 PM 75.9 °F 59.0 °F 56% 30.11 in 9.0 mi SSE 4.6 mph - N/A   Clear
7:53 PM 73.9 °F 59.0 °F 59% 30.11 in 9.0 mi SE 5.8 mph - N/A   Clear
8:53 PM 70.0 °F 59.0 °F 68% 30.11 in 10.0 mi SSE 4.6 mph - N/A   Clear
9:53 PM 69.1 °F 57.9 °F 68% 30.11 in 10.0 mi SSE 6.9 mph - N/A   Clear
10:53 PM 68.0 °F 57.9 °F 70% 30.11 in 10.0 mi South 8.1 mph - N/A   Clear
11:53 PM 66.9 °F 57.0 °F 70% 30.13 in 10.0 mi Calm Calm - N/A   Clear